Weather History for Grand Forks, ND

Change the Weather History Date:

Monday, February 4, 2013

  Actual Average Record
Temperature  
Mean Temperature 15 °F 9 °F  
Max Temperature 29 °F 19 °F 47 °F (1990)
Min Temperature 1 °F -2 °F -29 °F (1979)
Degree Days  
Heating Degree Days 50 56  
Month to date heating degree days 258 227  
Since 1 July heating degree days 5750 5893  
Cooling Degree Days 0 0  
Month to date cooling degree days 0 0  
Year to date cooling degree days 0 0  
Moisture  
Dew Point 5 °F    
Average Humidity 80    
Maximum Humidity 91    
Minimum Humidity 69    
Precipitation  
Precipitation 0.08 in 0.02 in 0.22 in (1962)
Month to date precipitation 0.11 0.06  
Year to date precipitation 0.53 0.61  
Snow  
Snow 2.20 in 0.20 in 2.20 in (2013)
Month to date snowfall 2.9 0.9  
Since 1 July snowfall 22.0 31.5  
Snow Depth 4.00 in    
Sea Level Pressure  
Sea Level Pressure 29.80 in    
Wind  
Wind Speed 14 mph (South)    
Max Wind Speed 25 mph    
Max Gust Speed 31 mph    
Visibility 6 miles    
Events Fog , Snow    
T = Trace of Precipitation, MM = Missing Value Source: NWS Daily Summary

Daily Weather History Graph

Daily Weather History Graph

Search for Another Location

Airport:

Trip Planner

Search our weather history database for the weather conditions in past years. The results will help you decide how hot, cold, wet, or windy it might be!

Date:

Astronomy

Feb. 04, 2013 Rise Set
Actual Time 7:51 AM CST 5:34 PM CST
Civil Twilight 7:18 AM CST 6:07 PM CST
Nautical Twilight 6:41 AM CST 6:44 PM CST
Astronomical Twilight 6:05 AM CST 7:20 PM CST
Moon 2:34 AM CST (2/4) 11:52 AM CST (2/4)
Length of Visible Light 10h 48m
Length of Day
9h 42m
Last Quarter, 37% of the Moon is Illuminated
Feb 4
Last Quarter
Feb 10
New
Feb 17
First Quarter
Feb 25
Full
Mar 4
Last Quarter

Hourly Weather History & Observations

Time (CST) Temp. Windchill Dew Point Humidity Pressure Visibility Wind Dir Wind Speed Gust Speed Precip Events Conditions
12:53 AM 1.0 °F - -7.1 °F 69% 30.11 in 10.0 mi Calm Calm - N/A   Overcast
1:53 AM 1.0 °F -10.3 °F -5.1 °F 75% 30.11 in 10.0 mi SSW 5.8 mph - N/A   Overcast
2:53 AM 1.0 °F -8.7 °F -5.1 °F 75% 30.10 in 10.0 mi South 4.6 mph - N/A   Overcast
3:23 AM 1.4 °F -6.2 °F -5.8 °F 72% 30.03 in 10.0 mi SSW 3.5 mph - N/A   Overcast
4:53 AM 3.0 °F -9.3 °F -2.9 °F 76% 30.09 in 10.0 mi South 6.9 mph - N/A   Overcast
5:26 AM 3.2 °F -10.3 °F -2.2 °F 78% 30.01 in 10.0 mi South 8.1 mph - N/A   Overcast
5:53 AM 3.0 °F -12.5 °F -2.9 °F 76% 30.07 in 10.0 mi SSW 10.4 mph - N/A   Overcast
6:53 AM 3.9 °F -12.2 °F -2.0 °F 76% 30.06 in 10.0 mi South 11.5 mph - N/A   Overcast
7:53 AM 3.9 °F -12.2 °F -2.0 °F 76% 30.04 in 10.0 mi South 11.5 mph - N/A   Overcast
8:53 AM 5.0 °F -11.6 °F -0.9 °F 76% 30.04 in 10.0 mi South 12.7 mph - N/A   Overcast
9:53 AM 6.1 °F -9.5 °F -0.0 °F 76% 30.01 in 10.0 mi SSW 11.5 mph - N/A   Overcast
10:53 AM 8.1 °F -9.0 °F -0.0 °F 70% 29.98 in 10.0 mi SSW 15.0 mph - N/A   Mostly Cloudy
11:53 AM 9.0 °F -8.5 °F 1.9 °F 73% 29.93 in 10.0 mi South 16.1 mph - N/A   Mostly Cloudy
12:53 PM 10.9 °F -7.5 °F 3.0 °F 70% 29.91 in 10.0 mi South 19.6 mph - N/A   Mostly Cloudy
2:51 PM 10.4 °F -8.2 °F 6.8 °F 85% 29.74 in 1.8 mi South 19.6 mph - 0.00 in Snow Light Snow
2:53 PM 10.9 °F -7.5 °F 6.1 °F 81% 29.81 in 1.5 mi South 19.6 mph - 0.00 in Snow Light Snow
3:03 PM 10.4 °F -7.2 °F 5.0 °F 79% 29.73 in 1.0 mi South 17.3 mph 26.5 mph 0.00 in Snow Light Snow
3:20 PM 10.4 °F -7.7 °F 6.8 °F 85% 29.72 in 0.8 mi South 18.4 mph - 0.00 in Snow Light Snow
3:48 PM 10.4 °F -9.1 °F 6.8 °F 85% 29.70 in 0.8 mi South 21.9 mph 29.9 mph 0.01 in Snow Light Snow
3:53 PM 10.0 °F -8.6 °F 6.1 °F 84% 29.76 in 0.5 mi South 19.6 mph 29.9 mph 0.01 in Fog , Snow Snow
4:53 PM 10.0 °F -10.0 °F 6.1 °F 84% 29.71 in 0.8 mi South 23.0 mph 31.1 mph 0.01 in Snow Light Snow
5:53 PM 10.9 °F -8.8 °F 7.0 °F 84% 29.67 in 0.8 mi South 23.0 mph 28.8 mph 0.02 in Snow Light Snow
6:10 PM 10.4 °F -8.2 °F 6.8 °F 85% 29.60 in 1.0 mi South 19.6 mph 31.1 mph 0.00 in Snow Light Snow
6:33 PM 10.4 °F -8.2 °F 8.6 °F 92% 29.58 in 0.8 mi South 19.6 mph - 0.01 in Snow Light Snow
6:48 PM 12.2 °F -6.3 °F 8.6 °F 85% 29.57 in 0.5 mi South 20.7 mph - 0.02 in Snow Light Snow
6:53 PM 12.0 °F -6.0 °F 9.0 °F 88% 29.63 in 0.5 mi South 19.6 mph - 0.03 in Snow Snow
7:13 PM 12.2 °F -5.3 °F 8.6 °F 85% 29.56 in 4.0 mi South 18.4 mph - 0.01 in Snow Light Snow
7:53 PM 12.9 °F -3.4 °F 9.0 °F 84% 29.60 in 6.0 mi South 16.1 mph - 0.01 in   Overcast
8:53 PM 12.0 °F -1.3 °F 9.0 °F 88% 29.57 in 10.0 mi South 10.4 mph - N/A   Scattered Clouds
9:53 PM 12.0 °F -1.3 °F 8.1 °F 84% 29.56 in 10.0 mi SSE 10.4 mph - N/A   Clear
10:23 PM 15.8 °F 8.6 °F 12.2 °F 86% 29.50 in 10.0 mi SSW 4.6 mph - N/A   Mostly Cloudy
10:53 PM 19.9 °F 13.4 °F 17.1 °F 89% 29.55 in 10.0 mi WSW 4.6 mph - N/A   Overcast
11:51 PM 28.4 °F 14.7 °F 24.8 °F 86% 29.53 in 10.0 mi NNW 21.9 mph 31.1 mph 0.00 in   Overcast
11:53 PM 28.0 °F 13.6 °F 23.0 °F 81% 29.58 in 10.0 mi NNW 24.2 mph 31.1 mph 0.00 in   Overcast